Date,Time,Wetness (Wet Dry or Ice),Wind Speed (m/s),Temperature (C),Humidity (%),Pressure (mb),Radiation (W/m^2)
2019-10-15,20:55:00,DRY,7.15,9.85,36.5,775.00,1.5
2019-10-15,21:00:00,DRY,7.30,9.43,40.0,775.67,1.2
2019-10-15,21:05:00,DRY,6.10,9.25,48.0,776.00,1.0
2019-10-15,21:10:00,DRY,7.57,9.33,44.0,775.33,1.0
2019-10-15,21:15:00,DRY,7.05,10.20,35.0,776.00,1.5
2019-10-15,21:20:00,DRY,6.67,10.43,37.0,775.67,1.6
2019-10-15,21:25:00,DRY,6.80,9.90,43.5,776.00,1.4
2019-10-15,21:30:00,DRY,5.97,10.00,43.7,775.67,1.4
2019-10-15,21:35:00,DRY,7.25,10.10,42.0,775.50,1.1
2019-10-15,21:40:00,DRY,7.30,10.27,43.3,775.67,1.4
2019-10-15,21:45:00,DRY,6.50,9.95,45.5,776.00,1.2
2019-10-15,21:50:00,DRY,6.33,10.30,45.3,776.00,1.0
2019-10-15,21:55:00,DRY,6.30,10.00,47.0,776.00,0.9
2019-10-15,22:00:00,DRY,5.93,10.20,45.0,776.00,1.3
2019-10-15,22:05:00,DRY,6.20,9.85,46.0,776.00,1.1
2019-10-15,22:10:00,DRY,7.43,9.93,41.3,775.67,1.2
2019-10-15,22:15:00,DRY,7.65,9.45,48.5,776.00,1.2
2019-10-15,22:20:00,DRY,7.47,9.43,49.3,776.00,1.0
2019-10-15,22:25:00,DRY,8.40,9.50,49.0,776.00,0.9
2019-10-15,22:30:00,DRY,7.03,9.33,51.3,776.00,1.1
2019-10-15,22:35:00,DRY,6.55,9.35,52.5,776.00,1.1
2019-10-15,22:40:00,DRY,7.07,9.40,49.7,776.00,0.7
2019-10-15,22:45:00,DRY,7.15,9.40,48.5,776.00,1.0
2019-10-15,22:50:00,DRY,7.97,9.43,49.7,776.00,1.2
2019-10-15,22:55:00,DRY,7.45,9.50,49.5,776.00,1.6
2019-10-15,23:00:00,DRY,7.13,9.77,49.0,776.00,1.1
2019-10-15,23:05:00,DRY,5.70,9.80,52.5,776.00,1.3
2019-10-15,23:10:00,DRY,8.07,9.67,51.7,776.00,1.2
2019-10-15,23:15:00,DRY,6.00,9.65,50.5,776.00,1.2
2019-10-15,23:20:00,DRY,6.50,9.20,53.7,776.00,1.4
2019-10-15,23:25:00,DRY,8.50,8.75,57.5,776.00,1.1
2019-10-15,23:30:00,DRY,6.20,8.80,55.3,776.00,1.0
2019-10-15,23:35:00,DRY,7.00,9.25,51.5,776.00,1.1
2019-10-15,23:40:00,DRY,6.43,9.30,52.0,776.00,1.2
2019-10-15,23:45:00,DRY,7.85,9.70,51.5,775.50,0.6
2019-10-15,23:50:00,DRY,6.73,9.87,51.3,776.00,0.5
2019-10-15,23:55:00,DRY,7.70,9.75,52.0,776.00,0.6
2019-10-16,00:00:00,DRY,8.10,9.67,51.3,775.33,1.1
2019-10-16,00:05:00,DRY,6.65,9.45,51.0,775.00,0.9
2019-10-16,00:10:00,DRY,7.53,9.57,50.0,775.67,1.2
2019-10-16,00:15:00,DRY,8.75,9.90,47.0,775.50,1.1
2019-10-16,00:20:00,DRY,7.20,9.87,46.7,775.33,1.2
2019-10-16,00:25:00,DRY,7.50,9.80,47.0,775.00,1.5
2019-10-16,00:30:00,DRY,6.30,9.73,45.0,775.00,1.1
2019-10-16,00:35:00,DRY,6.05,9.40,46.0,775.00,0.9
2019-10-16,00:40:00,DRY,7.40,9.33,41.0,775.00,0.9
2019-10-16,00:45:00,DRY,9.45,9.75,35.5,775.00,1.1
2019-10-16,00:50:00,DRY,8.57,10.03,32.7,775.00,1.1
2019-10-16,00:55:00,DRY,8.20,10.10,30.5,775.00,1.5
2019-10-16,01:00:00,DRY,7.33,9.97,30.0,775.00,1.9
2019-10-16,01:05:00,DRY,7.40,9.75,28.0,775.00,1.4
2019-10-16,01:10:00,DRY,9.73,9.90,30.0,775.00,1.2
2019-10-16,01:15:00,DRY,5.65,9.50,32.0,775.00,1.0
2019-10-16,01:20:00,DRY,7.23,9.60,34.3,775.00,1.2
2019-10-16,01:25:00,DRY,6.55,9.45,39.0,775.00,0.8
2019-10-16,01:30:00,DRY,7.20,9.50,35.7,775.00,1.4
2019-10-16,01:35:00,DRY,10.70,9.85,28.5,775.00,1.2
2019-10-16,01:40:00,DRY,9.63,10.20,25.3,775.00,0.9
2019-10-16,01:45:00,DRY,6.15,9.90,29.5,775.00,1.2
2019-10-16,01:50:00,DRY,6.93,9.57,33.3,775.00,1.4
2019-10-16,01:55:00,DRY,8.05,9.25,31.5,775.00,1.4
2019-10-16,02:00:00,DRY,7.93,9.50,32.7,775.00,1.1
2019-10-16,02:05:00,DRY,9.10,9.70,31.5,775.00,1.1
2019-10-16,02:10:00,DRY,6.93,9.30,34.3,775.00,0.9
2019-10-16,02:15:00,DRY,7.10,8.75,45.0,775.00,1.2
2019-10-16,02:20:00,DRY,8.63,8.90,39.0,775.00,1.2
2019-10-16,02:25:00,DRY,5.95,9.15,36.5,775.00,1.1
2019-10-16,02:30:00,DRY,6.93,9.07,42.0,775.00,1.0
2019-10-16,02:35:00,DRY,7.75,9.05,36.5,775.00,1.3
2019-10-16,02:40:00,DRY,7.40,9.97,21.3,775.00,1.2
2019-10-16,02:45:00,DRY,8.05,10.35,17.0,775.00,1.1
2019-10-16,02:50:00,DRY,6.80,10.50,18.3,775.00,1.2
2019-10-16,02:55:00,DRY,5.75,10.35,18.0,775.00,1.2
2019-10-16,03:00:00,DRY,6.87,10.53,16.7,775.00,1.3
2019-10-16,03:05:00,DRY,6.85,10.70,15.5,775.00,1.3
2019-10-16,03:10:00,DRY,6.93,10.67,15.0,775.00,1.1
2019-10-16,03:15:00,DRY,4.20,10.75,13.5,775.00,1.3
2019-10-16,03:20:00,DRY,7.07,10.80,12.7,775.00,1.3
2019-10-16,03:25:00,DRY,2.85,10.75,12.5,775.00,1.1
2019-10-16,03:30:00,DRY,4.50,10.73,11.3,775.00,0.9
2019-10-16,03:35:00,DRY,5.05,10.80,11.0,775.00,0.7
2019-10-16,03:40:00,DRY,2.43,10.87,10.3,775.00,1.4
2019-10-16,03:45:00,DRY,2.15,10.90,9.5,775.00,1.1
2019-10-16,03:50:00,DRY,4.10,11.00,10.0,775.00,1.5
2019-10-16,03:55:00,DRY,5.05,10.90,10.0,775.00,0.8
2019-10-16,04:00:00,DRY,2.47,10.87,9.0,775.00,1.7
2019-10-16,04:05:00,DRY,4.20,10.90,9.0,775.00,1.3
2019-10-16,04:10:00,DRY,4.30,11.03,9.0,775.00,1.1
2019-10-16,04:15:00,DRY,4.55,10.70,12.0,775.00,1.2
2019-10-16,04:20:00,DRY,4.87,10.77,9.0,775.00,1.4
2019-10-16,04:25:00,DRY,4.10,10.85,9.5,775.00,0.8
2019-10-16,04:30:00,DRY,4.47,10.97,8.0,775.00,1.3
2019-10-16,04:35:00,DRY,4.55,11.00,8.0,775.00,0.9
2019-10-16,04:40:00,DRY,4.57,11.17,8.0,775.00,2.0
2019-10-16,04:45:00,DRY,4.65,11.10,8.0,775.00,1.4
2019-10-16,04:50:00,DRY,4.03,11.10,7.7,775.00,1.0
2019-10-16,04:55:00,DRY,4.95,11.15,7.5,775.00,1.2
2019-10-16,05:00:00,DRY,4.47,11.10,7.3,775.00,1.1
2019-10-16,05:05:00,DRY,4.30,11.25,7.0,775.00,1.0
2019-10-16,05:10:00,DRY,5.33,11.23,6.7,775.00,1.2
2019-10-16,05:15:00,DRY,3.75,11.25,6.5,775.00,1.2
2019-10-16,05:20:00,DRY,3.37,11.37,6.0,775.00,1.1
2019-10-16,05:25:00,DRY,4.70,11.30,6.0,775.00,1.0
2019-10-16,05:30:00,DRY,4.47,11.27,6.0,775.00,1.2
2019-10-16,05:35:00,DRY,2.45,11.25,6.0,775.00,0.6
2019-10-16,05:40:00,DRY,3.13,11.23,5.0,775.00,1.3
2019-10-16,05:45:00,DRY,3.45,11.25,5.0,775.00,1.9
2019-10-16,05:50:00,DRY,3.80,11.20,4.0,775.00,1.1
2019-10-16,05:55:00,DRY,3.10,11.30,4.0,775.00,0.9
2019-10-16,06:00:00,DRY,3.43,11.20,4.0,775.00,1.2
2019-10-16,06:05:00,DRY,3.55,11.10,4.0,775.00,1.5
2019-10-16,06:10:00,DRY,3.77,11.07,4.0,775.00,1.0
2019-10-16,06:15:00,DRY,4.00,11.00,4.0,775.00,1.6
2019-10-16,06:20:00,DRY,4.33,11.03,3.7,775.00,1.8
2019-10-16,06:25:00,DRY,4.55,11.05,3.5,775.00,1.2
2019-10-16,06:30:00,DRY,3.77,10.90,4.0,775.00,1.3
2019-10-16,06:35:00,DRY,3.80,10.95,3.5,775.00,1.2
2019-10-16,06:40:00,DRY,3.40,10.93,3.7,775.00,0.8
2019-10-16,06:45:00,DRY,5.10,10.85,4.0,775.00,1.1
2019-10-16,06:50:00,DRY,4.57,10.83,4.0,775.00,1.2
2019-10-16,06:55:00,DRY,4.25,10.90,4.0,775.00,1.3
2019-10-16,07:00:00,DRY,3.80,11.00,4.0,775.00,2.0
2019-10-16,07:05:00,DRY,3.10,11.10,4.0,775.00,3.0
2019-10-16,07:10:00,DRY,4.20,11.03,3.7,775.00,5.6
2019-10-16,07:15:00,DRY,4.05,10.90,4.0,775.00,8.1
2019-10-16,07:20:00,DRY,3.50,10.90,4.0,775.00,11.4
2019-10-16,07:25:00,DRY,6.25,10.95,4.0,775.00,14.2
2019-10-16,07:30:00,DRY,3.60,11.13,4.0,775.00,16.7
2019-10-16,07:35:00,DRY,5.15,11.10,4.0,775.00,18.6
2019-10-16,07:40:00,DRY,5.47,11.03,4.0,775.00,20.5
2019-10-16,07:45:00,DRY,6.70,11.20,4.0,775.00,22.2
2019-10-16,07:50:00,DRY,3.70,11.17,3.7,775.00,23.4
2019-10-16,07:55:00,DRY,5.05,11.30,3.0,775.00,25.9
2019-10-16,08:00:00,DRY,3.70,11.27,3.7,775.00,27.5
2019-10-16,08:05:00,DRY,4.40,11.30,4.5,775.00,28.9
2019-10-16,08:10:00,DRY,4.80,11.43,6.7,775.33,181.2
2019-10-16,08:15:00,DRY,4.55,11.60,9.5,775.00,247.8
2019-10-16,08:20:00,DRY,6.83,11.57,10.0,775.00,270.2
2019-10-16,08:25:00,DRY,4.80,11.50,12.5,775.00,292.1
2019-10-16,08:30:00,DRY,5.73,11.50,14.0,775.00,312.5
2019-10-16,08:35:00,DRY,5.05,11.50,15.0,775.00,333.4
2019-10-16,08:40:00,DRY,5.27,11.50,19.7,775.33,354.6
2019-10-16,08:45:00,DRY,3.85,11.50,18.5,775.50,375.6
2019-10-16,08:50:00,DRY,3.93,11.47,16.3,776.00,395.6
2019-10-16,08:55:00,DRY,2.40,11.50,15.0,775.50,415.4
2019-10-16,09:00:00,DRY,2.83,11.50,14.3,776.00,435.3
2019-10-16,09:05:00,DRY,4.20,11.50,15.5,776.00,454.4
2019-10-16,09:10:00,DRY,4.97,11.60,15.3,776.00,474.0
2019-10-16,09:15:00,DRY,3.60,11.60,15.0,776.00,492.8
2019-10-16,09:20:00,DRY,5.50,11.60,17.0,776.00,515.0
2019-10-16,09:25:00,DRY,4.15,11.70,19.0,776.00,530.8
2019-10-16,09:30:00,DRY,4.30,11.73,19.3,776.00,548.3
2019-10-16,09:35:00,DRY,5.45,11.85,19.0,776.00,566.0
2019-10-16,09:40:00,DRY,3.27,11.87,20.3,776.00,583.9
2019-10-16,09:45:00,DRY,3.75,11.90,21.5,776.00,601.2
2019-10-16,09:50:00,DRY,4.23,12.00,22.0,776.00,619.6
2019-10-16,09:55:00,DRY,5.60,12.05,21.0,776.00,642.4
2019-10-16,10:00:00,DRY,4.57,12.37,22.0,776.00,667.8
2019-10-16,10:05:00,DRY,4.80,12.45,24.5,776.00,707.8
2019-10-16,10:10:00,DRY,4.73,12.47,22.0,776.00,597.2
2019-10-16,10:15:00,DRY,3.60,12.50,21.0,776.00,375.0
2019-10-16,10:20:00,DRY,2.90,12.30,22.3,776.00,592.8
2019-10-16,10:25:00,DRY,2.25,12.40,23.5,776.00,558.1
2019-10-16,10:30:00,DRY,4.90,12.57,23.7,776.00,654.0
2019-10-16,10:35:00,DRY,3.45,12.70,22.5,776.00,539.9
2019-10-16,10:40:00,DRY,5.10,12.73,23.0,776.00,668.0
2019-10-16,10:45:00,DRY,4.60,12.85,20.5,776.00,836.0
2019-10-16,10:50:00,DRY,5.33,13.33,20.7,776.00,829.0
2019-10-16,10:55:00,DRY,4.60,13.65,19.5,776.00,849.6
2019-10-16,11:00:00,DRY,2.97,13.63,19.0,776.00,655.9
2019-10-16,11:05:00,DRY,4.45,13.65,18.5,776.00,787.1
2019-10-16,11:10:00,DRY,4.25,13.80,18.5,776.00,604.2
2019-10-16,11:15:00,DRY,2.15,13.85,19.0,776.00,942.1
2019-10-16,11:20:00,DRY,3.10,14.03,20.0,776.00,916.7
2019-10-16,11:25:00,DRY,4.50,14.05,20.5,776.00,886.1
2019-10-16,11:30:00,DRY,2.53,13.93,20.3,776.00,877.8
2019-10-16,11:35:00,DRY,3.40,13.95,22.0,776.00,885.6
2019-10-16,11:40:00,DRY,3.10,13.97,33.7,776.00,904.3
2019-10-16,11:45:00,DRY,5.55,13.90,30.0,776.00,898.5
2019-10-16,11:50:00,DRY,4.90,13.93,29.0,776.00,922.7
2019-10-16,11:55:00,DRY,2.10,14.00,37.0,776.00,946.2
2019-10-16,12:00:00,DRY,2.63,13.93,40.3,776.00,966.7
2019-10-16,12:05:00,DRY,1.50,13.85,39.0,776.00,959.1
2019-10-16,12:10:00,DRY,1.97,13.90,40.0,776.00,914.6
2019-10-16,12:15:00,DRY,2.75,13.35,40.0,776.00,797.6
2019-10-16,12:20:00,DRY,3.17,13.47,42.7,776.00,899.9
2019-10-16,12:25:00,DRY,5.35,14.05,33.0,776.00,891.5
2019-10-16,12:30:00,DRY,4.63,13.80,41.3,776.00,859.5
2019-10-16,12:35:00,DRY,4.00,13.90,30.0,776.00,811.0
2019-10-16,12:40:00,DRY,4.63,13.43,43.3,776.00,813.5
2019-10-16,12:45:00,DRY,4.30,13.70,42.0,776.00,964.8
2019-10-16,12:50:00,DRY,3.67,13.67,43.0,776.00,952.3
2019-10-16,12:55:00,DRY,2.00,13.45,59.0,776.00,969.0
2019-10-16,13:00:00,DRY,3.57,14.03,30.7,776.00,968.4
2019-10-16,13:05:00,DRY,5.90,14.00,34.0,776.00,894.0
2019-10-16,13:10:00,DRY,6.93,13.47,44.0,776.00,793.6
2019-10-16,13:15:00,DRY,6.80,13.85,38.5,776.00,931.0
2019-10-16,13:20:00,DRY,5.90,13.67,40.0,776.00,962.5
2019-10-16,13:25:00,DRY,7.40,13.55,35.5,775.50,818.0
2019-10-16,13:30:00,DRY,7.10,13.20,34.0,775.00,681.7
2019-10-16,13:35:00,DRY,5.00,13.10,39.0,776.00,897.9
2019-10-16,13:40:00,DRY,5.37,13.43,35.0,775.67,959.2
2019-10-16,13:45:00,DRY,4.70,13.55,35.5,775.50,922.8
2019-10-16,13:50:00,DRY,4.80,13.60,40.3,775.67,922.1
2019-10-16,13:55:00,DRY,4.15,13.85,40.0,776.00,908.2
2019-10-16,14:00:00,DRY,5.27,13.63,40.3,775.67,851.9
2019-10-16,14:05:00,DRY,6.20,13.85,39.5,776.00,887.0
2019-10-16,14:10:00,DRY,3.53,13.83,40.3,775.33,900.3
2019-10-16,14:15:00,DRY,7.10,13.75,38.5,775.00,912.5
2019-10-16,14:20:00,DRY,6.40,14.00,38.7,775.33,913.4
2019-10-16,14:25:00,DRY,3.55,14.25,40.5,775.00,902.5
2019-10-16,14:30:00,DRY,5.93,13.77,38.0,775.00,872.3
2019-10-16,14:35:00,DRY,3.75,14.10,41.5,775.50,861.2
2019-10-16,14:40:00,DRY,5.03,13.90,39.7,775.33,860.9
2019-10-16,14:45:00,DRY,5.25,13.65,42.5,775.50,865.6
2019-10-16,14:50:00,DRY,4.37,14.07,40.3,775.33,839.9
2019-10-16,14:55:00,DRY,5.65,13.55,41.0,775.00,814.6
2019-10-16,15:00:00,DRY,6.17,13.50,40.3,775.00,821.0
2019-10-16,15:05:00,DRY,3.65,13.40,39.5,775.50,867.9
2019-10-16,15:10:00,DRY,4.80,13.97,37.7,775.00,812.2
2019-10-16,15:15:00,DRY,4.20,13.30,40.0,775.00,462.4
2019-10-16,15:20:00,DRY,5.40,13.37,37.7,775.00,802.9
2019-10-16,15:25:00,DRY,6.40,13.65,36.0,775.00,818.0
2019-10-16,15:30:00,DRY,4.87,13.40,36.7,775.33,802.0
2019-10-16,15:35:00,DRY,4.85,13.50,37.0,775.50,765.5
2019-10-16,15:40:00,DRY,5.17,13.57,37.7,775.33,699.9
2019-10-16,15:45:00,DRY,4.10,13.40,38.5,775.00,736.5
2019-10-16,15:50:00,DRY,5.23,13.40,37.7,775.00,438.5
2019-10-16,15:55:00,DRY,3.00,13.45,39.0,775.00,773.9
2019-10-16,16:00:00,DRY,6.00,13.67,37.0,775.00,708.9
2019-10-16,16:05:00,DRY,6.30,13.55,38.5,775.00,546.8
2019-10-16,16:10:00,DRY,4.30,13.50,38.3,775.00,630.6
2019-10-16,16:15:00,DRY,6.65,13.25,38.5,775.00,567.9
2019-10-16,16:20:00,DRY,5.03,13.10,36.7,775.00,547.4
2019-10-16,16:25:00,DRY,4.15,13.30,36.0,775.00,533.9
2019-10-16,16:30:00,DRY,6.63,13.27,35.7,775.00,511.5
2019-10-16,16:35:00,DRY,4.60,13.05,39.5,775.00,485.1
2019-10-16,16:40:00,DRY,5.90,12.97,39.7,775.00,461.9
2019-10-16,16:45:00,DRY,6.65,13.00,37.5,775.00,440.9
2019-10-16,16:50:00,DRY,5.30,13.03,35.3,775.00,419.1
2019-10-16,16:55:00,DRY,7.10,13.05,35.0,775.00,398.5
2019-10-16,17:00:00,DRY,7.47,13.07,34.7,775.00,377.9
2019-10-16,17:05:00,DRY,4.10,13.00,33.0,775.00,357.0
2019-10-16,17:10:00,DRY,2.40,13.07,30.7,775.00,336.4
2019-10-16,17:15:00,DRY,4.70,13.05,28.5,775.00,316.2
2019-10-16,17:20:00,DRY,5.27,12.83,29.0,775.00,296.7
2019-10-16,17:25:00,DRY,8.15,12.65,27.5,775.00,272.8
2019-10-16,17:30:00,DRY,3.90,12.70,25.3,775.00,253.1
2019-10-16,17:35:00,DRY,8.00,12.60,23.0,775.00,230.8
2019-10-16,17:40:00,DRY,4.20,12.57,23.0,775.00,210.4
2019-10-16,17:45:00,DRY,4.95,12.55,22.0,775.00,190.8
2019-10-16,17:50:00,DRY,4.00,12.60,21.7,775.00,171.4
2019-10-16,17:55:00,DRY,4.10,12.50,21.5,775.00,152.2
2019-10-16,18:00:00,DRY,3.57,12.50,20.7,775.00,133.1
2019-10-16,18:05:00,DRY,5.55,12.50,20.5,775.00,109.1
2019-10-16,18:10:00,DRY,4.53,12.40,20.3,775.00,84.1
2019-10-16,18:15:00,DRY,3.60,12.20,20.0,775.00,62.6
2019-10-16,18:20:00,DRY,5.00,12.10,18.7,775.33,32.3
2019-10-16,18:25:00,DRY,6.50,11.90,17.0,776.00,17.0
2019-10-16,18:30:00,DRY,3.20,11.80,16.3,775.67,14.6
2019-10-16,18:35:00,DRY,5.55,11.75,15.0,776.00,11.5
2019-10-16,18:40:00,DRY,4.53,11.70,14.3,776.00,9.1
2019-10-16,18:45:00,DRY,4.70,11.70,14.0,776.00,5.9
2019-10-16,18:50:00,DRY,5.77,11.70,13.0,776.00,3.8
2019-10-16,18:55:00,DRY,2.75,11.70,14.0,776.00,2.9
2019-10-16,19:00:00,DRY,4.93,11.60,13.3,776.00,1.5
2019-10-16,19:05:00,DRY,5.20,11.65,13.0,776.00,1.0
2019-10-16,19:10:00,DRY,5.70,11.60,13.3,776.00,1.2
2019-10-16,19:15:00,DRY,4.40,11.50,14.0,776.00,1.4
2019-10-16,19:20:00,DRY,4.27,11.43,14.0,776.00,1.3
2019-10-16,19:25:00,DRY,3.70,11.35,15.5,776.00,1.4
2019-10-16,19:30:00,DRY,2.83,11.30,16.7,776.00,2.2
2019-10-16,19:35:00,DRY,3.20,11.20,21.0,776.00,1.7
2019-10-16,19:40:00,DRY,2.73,11.27,21.3,776.00,1.5
2019-10-16,19:45:00,DRY,3.85,11.35,21.5,776.00,1.1
2019-10-16,19:50:00,DRY,3.93,11.23,23.3,776.00,1.3
2019-10-16,19:55:00,DRY,5.05,11.20,25.5,776.00,1.2
2019-10-16,20:00:00,DRY,3.50,11.20,25.3,776.00,1.3
2019-10-16,20:05:00,DRY,3.90,11.20,26.0,776.00,0.9
2019-10-16,20:10:00,DRY,5.07,11.20,25.7,776.00,1.1
2019-10-16,20:15:00,DRY,3.30,11.10,27.0,776.00,1.1
2019-10-16,20:20:00,DRY,3.60,11.17,29.3,776.00,0.7
2019-10-16,20:25:00,DRY,3.10,11.15,29.0,776.00,1.0
2019-10-16,20:30:00,DRY,4.67,11.10,29.7,776.00,1.2
2019-10-16,20:35:00,DRY,6.30,11.10,29.0,776.00,1.0
2019-10-16,20:40:00,DRY,5.43,11.07,31.3,776.00,1.3
2019-10-16,20:45:00,DRY,3.85,11.05,33.5,776.50,0.7
2019-10-16,20:50:00,DRY,4.13,11.13,34.3,776.33,1.4
2019-10-16,20:55:00,DRY,3.35,11.20,34.5,776.00,1.2
2019-10-16,21:00:00,DRY,4.07,11.20,34.3,777.00,1.2
2019-10-16,21:05:00,DRY,5.60,11.20,34.5,777.00,1.4
2019-10-16,21:10:00,DRY,5.13,11.43,30.0,777.00,1.6
2019-10-16,21:15:00,DRY,4.05,11.70,28.5,777.00,1.4
2019-10-16,21:20:00,DRY,5.50,11.57,31.7,777.00,1.1
2019-10-16,21:25:00,DRY,4.85,11.55,31.5,777.00,1.1
2019-10-16,21:30:00,DRY,5.97,11.57,31.0,777.00,1.1
2019-10-16,21:35:00,DRY,4.95,11.65,31.5,777.00,1.3
2019-10-16,21:40:00,DRY,5.77,11.57,32.3,777.00,1.2
2019-10-16,21:45:00,DRY,4.45,11.50,31.5,777.00,0.9
2019-10-16,21:50:00,DRY,5.13,11.53,31.7,777.00,1.3
2019-10-16,21:55:00,DRY,5.85,11.60,31.5,777.00,1.2
2019-10-16,22:00:00,DRY,4.10,11.50,33.0,777.00,0.8
2019-10-16,22:05:00,DRY,4.05,11.40,33.5,777.00,0.4
2019-10-16,22:10:00,DRY,3.30,11.80,30.3,777.00,1.2
2019-10-16,22:15:00,DRY,3.75,11.75,31.5,777.00,1.1
2019-10-16,22:20:00,DRY,4.50,11.57,32.0,777.00,1.1
2019-10-16,22:25:00,DRY,2.55,11.40,33.5,777.00,0.9
2019-10-16,22:30:00,DRY,4.60,11.40,34.0,777.00,1.3
2019-10-16,22:35:00,DRY,3.30,11.20,34.5,777.00,1.0
2019-10-16,22:40:00,DRY,3.53,11.27,34.3,777.00,1.0
2019-10-16,22:45:00,DRY,4.75,11.45,33.0,777.00,0.9
2019-10-16,22:50:00,DRY,4.77,11.60,32.7,777.00,1.2
2019-10-16,22:55:00,DRY,5.20,11.55,33.5,777.00,2.0
2019-10-16,23:00:00,DRY,4.67,11.43,34.0,777.00,1.1
2019-10-16,23:05:00,DRY,4.10,11.35,34.0,777.00,1.3
2019-10-16,23:10:00,DRY,4.00,11.33,34.0,777.00,1.4
2019-10-16,23:15:00,DRY,3.40,11.40,34.0,777.00,1.5
2019-10-16,23:20:00,DRY,3.67,11.50,33.7,777.00,1.3
2019-10-16,23:25:00,DRY,5.85,11.35,34.0,777.00,1.1
2019-10-16,23:30:00,DRY,3.77,11.40,34.0,777.00,1.1
2019-10-16,23:35:00,DRY,5.30,11.40,34.0,777.00,0.7
2019-10-16,23:40:00,DRY,4.63,11.43,33.7,777.00,1.4
2019-10-16,23:45:00,DRY,6.15,11.55,33.5,777.00,1.1
2019-10-16,23:50:00,DRY,5.20,11.47,34.0,777.00,1.0
2019-10-16,23:55:00,DRY,5.70,11.30,35.0,777.00,0.9
2019-10-17,00:00:00,DRY,6.43,11.27,35.7,777.00,0.8
2019-10-17,00:05:00,DRY,6.05,11.15,36.0,777.00,1.0
2019-10-17,00:10:00,DRY,6.47,11.17,36.0,776.67,1.2
2019-10-17,00:15:00,DRY,6.75,11.30,35.5,776.00,1.1
2019-10-17,00:20:00,DRY,5.37,11.37,35.3,776.67,1.2
2019-10-17,00:25:00,DRY,3.90,11.30,36.0,776.50,1.5
2019-10-17,00:30:00,DRY,5.50,11.20,36.3,776.00,0.9
2019-10-17,00:35:00,DRY,3.05,11.20,36.5,777.00,0.6
2019-10-17,00:40:00,DRY,5.70,11.23,36.7,776.00,1.3
2019-10-17,00:45:00,DRY,3.75,11.35,35.5,776.50,1.2
2019-10-17,00:50:00,DRY,5.70,11.30,36.3,776.00,1.6
2019-10-17,00:55:00,DRY,5.05,11.10,37.0,776.50,1.5
2019-10-17,01:00:00,DRY,3.97,11.20,36.3,776.00,0.9
2019-10-17,01:05:00,DRY,4.45,11.30,35.0,776.00,1.5
2019-10-17,01:10:00,DRY,4.40,11.27,34.7,776.00,1.2
2019-10-17,01:15:00,DRY,5.05,11.20,36.5,776.00,0.9
2019-10-17,01:20:00,DRY,6.53,11.00,39.7,776.00,1.2
2019-10-17,01:25:00,DRY,7.00,11.00,41.0,776.00,1.3
2019-10-17,01:30:00,DRY,4.27,10.97,37.3,776.00,1.2
2019-10-17,01:35:00,DRY,5.75,11.05,36.0,776.00,1.4
2019-10-17,01:40:00,DRY,4.30,11.13,37.7,776.00,1.1
2019-10-17,01:45:00,DRY,3.85,11.10,38.5,776.00,0.4
2019-10-17,01:50:00,DRY,4.37,10.90,41.7,776.00,1.6
2019-10-17,01:55:00,DRY,4.25,10.75,44.0,776.00,0.9
2019-10-17,02:00:00,DRY,3.27,10.60,44.0,776.00,1.5
2019-10-17,02:05:00,DRY,3.35,10.55,44.5,776.00,0.9
2019-10-17,02:10:00,DRY,3.90,10.47,44.7,776.00,1.3
2019-10-17,02:15:00,DRY,5.45,10.55,42.0,776.00,1.2
2019-10-17,02:20:00,DRY,3.73,10.60,41.7,776.00,0.8
2019-10-17,02:25:00,DRY,3.70,10.50,42.5,776.00,1.2
2019-10-17,02:30:00,DRY,5.03,10.47,43.7,776.00,1.2
2019-10-17,02:35:00,DRY,3.20,10.45,44.0,776.00,1.5
2019-10-17,02:40:00,DRY,4.40,10.40,43.7,776.00,1.3
2019-10-17,02:45:00,DRY,4.10,10.30,45.0,776.00,1.1
2019-10-17,02:50:00,DRY,3.93,10.23,44.3,776.00,1.0
2019-10-17,02:55:00,DRY,4.60,10.20,45.0,776.00,1.8
2019-10-17,03:00:00,DRY,5.63,10.30,45.3,776.00,1.8
2019-10-17,03:05:00,DRY,6.20,10.40,43.5,776.00,1.1
2019-10-17,03:10:00,DRY,4.63,10.47,41.3,776.00,1.3
2019-10-17,03:15:00,DRY,3.65,10.35,41.5,776.00,0.6
2019-10-17,03:20:00,DRY,4.20,10.30,43.0,776.00,1.3
2019-10-17,03:25:00,DRY,4.85,10.30,42.5,776.00,1.1
2019-10-17,03:30:00,DRY,4.20,10.37,40.3,776.00,1.4
2019-10-17,03:35:00,DRY,3.95,10.55,39.5,776.00,1.0
2019-10-17,03:40:00,DRY,4.53,10.63,39.0,776.00,1.2
2019-10-17,03:45:00,DRY,5.15,10.70,38.5,776.00,1.4
2019-10-17,03:50:00,DRY,4.07,10.73,38.3,776.00,0.9
2019-10-17,03:55:00,DRY,4.95,10.60,38.5,776.00,1.2
2019-10-17,04:00:00,DRY,4.20,10.67,38.3,776.00,1.4
2019-10-17,04:05:00,DRY,4.60,10.70,37.0,776.00,1.9
2019-10-17,04:10:00,DRY,4.83,10.80,37.0,776.00,1.0
2019-10-17,04:15:00,DRY,4.70,10.70,39.0,776.00,2.2
2019-10-17,04:20:00,DRY,4.03,10.67,37.7,776.00,0.8
2019-10-17,04:25:00,DRY,2.40,10.65,39.0,776.00,1.4
2019-10-17,04:30:00,DRY,2.53,10.60,39.7,776.00,0.9
2019-10-17,04:35:00,DRY,3.35,10.65,40.0,776.00,1.7
2019-10-17,04:40:00,DRY,3.03,10.63,40.3,776.00,1.2
2019-10-17,04:45:00,DRY,3.85,10.60,40.0,776.00,0.9
2019-10-17,04:50:00,DRY,4.23,10.50,41.0,776.00,1.8
2019-10-17,04:55:00,DRY,3.90,10.45,41.0,776.00,1.3
2019-10-17,05:00:00,DRY,4.07,10.53,40.3,776.00,1.2
2019-10-17,05:05:00,DRY,5.15,10.60,40.0,776.00,1.0
2019-10-17,05:10:00,DRY,4.37,10.53,40.0,776.00,0.9
2019-10-17,05:15:00,DRY,4.70,10.55,39.5,776.00,1.2
2019-10-17,05:20:00,DRY,4.37,10.50,40.0,776.00,1.4
2019-10-17,05:25:00,DRY,5.00,10.40,39.5,776.00,1.2
2019-10-17,05:30:00,DRY,3.13,10.30,40.3,776.00,0.6
2019-10-17,05:35:00,DRY,3.15,10.30,40.5,776.00,1.1
2019-10-17,05:40:00,DRY,3.83,10.40,39.3,776.00,1.5
2019-10-17,05:45:00,DRY,3.90,10.45,40.5,776.00,0.5
2019-10-17,05:50:00,DRY,4.20,10.40,40.7,776.00,0.9
2019-10-17,05:55:00,DRY,2.50,10.45,39.5,776.00,1.5
2019-10-17,06:00:00,DRY,3.97,10.37,39.0,776.00,1.2
2019-10-17,06:05:00,DRY,4.30,10.40,40.0,776.00,0.7
2019-10-17,06:10:00,DRY,3.53,10.50,41.0,776.00,1.0
2019-10-17,06:15:00,DRY,4.00,10.45,41.5,776.00,1.4
2019-10-17,06:20:00,DRY,4.43,10.50,42.0,776.00,1.2
2019-10-17,06:25:00,DRY,4.00,10.40,43.0,776.00,1.1
2019-10-17,06:30:00,DRY,5.27,10.40,42.3,776.00,0.9
2019-10-17,06:35:00,DRY,3.50,10.35,41.0,776.00,0.3
2019-10-17,06:40:00,DRY,3.63,10.37,41.7,776.00,1.5
2019-10-17,06:45:00,DRY,2.75,10.30,40.5,776.00,0.8
2019-10-17,06:50:00,DRY,4.03,10.43,40.3,776.00,1.2
2019-10-17,06:55:00,DRY,3.95,10.35,40.0,776.00,1.5
2019-10-17,07:00:00,DRY,4.23,10.43,40.7,776.00,2.3
2019-10-17,07:05:00,DRY,3.10,10.40,38.0,776.00,3.8
2019-10-17,07:10:00,DRY,4.23,10.40,39.3,776.00,5.5
2019-10-17,07:15:00,DRY,3.70,10.40,40.5,776.00,7.8
2019-10-17,07:20:00,DRY,3.90,10.40,40.0,776.00,11.3
2019-10-17,07:25:00,DRY,3.50,10.20,41.5,776.00,14.6
2019-10-17,07:30:00,DRY,3.47,10.20,40.7,776.00,17.2
2019-10-17,07:35:00,DRY,3.35,10.15,41.5,776.00,19.8
2019-10-17,07:40:00,DRY,3.47,10.30,43.0,776.00,21.4
2019-10-17,07:45:00,DRY,4.00,10.30,41.5,776.00,23.5
2019-10-17,07:50:00,DRY,3.00,10.30,43.0,776.00,25.3
2019-10-17,07:55:00,DRY,1.35,10.40,44.0,776.00,27.4
2019-10-17,08:00:00,DRY,2.57,10.37,45.3,776.00,28.6
2019-10-17,08:05:00,DRY,2.65,10.40,45.5,776.00,30.8
2019-10-17,08:10:00,DRY,2.17,10.60,45.0,776.33,201.7
2019-10-17,08:15:00,DRY,2.05,10.75,43.5,777.00,242.0
2019-10-17,08:20:00,DRY,2.00,10.93,43.0,777.00,262.3
2019-10-17,08:25:00,DRY,2.60,10.95,42.5,777.00,283.8
2019-10-17,08:30:00,DRY,2.77,10.97,42.3,777.00,305.7
2019-10-17,08:35:00,DRY,2.75,10.95,43.0,776.50,325.0
2019-10-17,08:40:00,DRY,2.40,11.07,42.7,776.00,347.4
2019-10-17,08:45:00,DRY,1.65,11.25,42.0,776.50,368.6
2019-10-17,08:50:00,DRY,2.13,11.33,43.0,776.67,387.5
2019-10-17,08:55:00,DRY,1.80,11.40,43.0,777.00,409.6
2019-10-17,09:00:00,DRY,3.37,11.57,43.3,777.00,429.5
2019-10-17,09:05:00,DRY,2.85,11.75,44.5,777.00,449.9
2019-10-17,09:10:00,DRY,2.53,11.87,45.0,777.00,469.0
2019-10-17,09:15:00,DRY,3.50,12.05,43.5,777.00,488.7
2019-10-17,09:20:00,DRY,3.20,12.00,43.0,777.00,509.3
2019-10-17,09:25:00,DRY,2.80,12.10,44.5,777.00,526.6
2019-10-17,09:30:00,DRY,2.97,12.53,44.7,777.00,546.2
2019-10-17,09:35:00,DRY,2.25,12.80,43.5,777.00,564.2
2019-10-17,09:40:00,DRY,1.87,13.00,43.3,777.00,583.0
2019-10-17,09:45:00,DRY,2.15,13.25,43.0,777.00,600.0
2019-10-17,09:50:00,DRY,2.03,13.37,45.7,777.00,617.6
2019-10-17,09:55:00,DRY,2.35,13.45,45.0,777.00,633.3
2019-10-17,10:00:00,DRY,2.13,13.73,51.0,777.00,648.3
2019-10-17,10:05:00,DRY,2.75,13.60,45.0,777.00,665.4
2019-10-17,10:10:00,DRY,2.43,13.83,46.7,777.00,678.7
2019-10-17,10:15:00,DRY,2.40,13.95,45.5,777.00,694.4
2019-10-17,10:20:00,DRY,1.53,14.03,45.3,777.00,709.6
2019-10-17,10:25:00,DRY,2.75,13.85,54.5,777.00,721.6
2019-10-17,10:30:00,DRY,2.43,14.00,52.7,777.00,735.1
2019-10-17,10:35:00,DRY,2.50,14.15,54.5,777.00,748.0
2019-10-17,10:40:00,DRY,3.77,14.13,53.3,777.00,762.6
2019-10-17,10:45:00,DRY,1.90,14.10,51.0,777.00,775.4
2019-10-17,10:50:00,DRY,2.50,14.43,47.3,777.00,787.2
2019-10-17,10:55:00,DRY,1.85,14.40,53.0,777.00,797.6
2019-10-17,11:00:00,DRY,2.87,14.07,52.0,777.00,809.3
2019-10-17,11:05:00,DRY,1.95,14.25,52.5,777.00,819.5
2019-10-17,11:10:00,DRY,2.23,14.37,51.3,777.00,829.0
2019-10-17,11:15:00,DRY,3.70,14.35,50.5,777.00,838.2
2019-10-17,11:20:00,DRY,2.03,14.40,53.7,777.00,847.3
2019-10-17,11:25:00,DRY,2.90,14.90,54.5,777.00,856.7